Weather in Brighton

United Kingdom     50°51′57″N   0°04′48″E
temp.,
°C
wind,
m/s
gust,
m/s
humid.,
%
clouds,
%
prec.,
mm/h
press.,
hPa
HPBL,
m
16 april, fri
fri1601:00+4ne698121 0.0 1031317
04:00+4ne58835 0.0 1031229
07:00+3nne68865 0.0 1031246
10:00+7ne67685 0.0 1031815
13:00+9e455794 0.1 1030452
16:00+9ene565530 0.0 1029447
19:00+8ene56640 0.0 1029826
22:00+5ne58760 0.0 1030282
17 april, sat
sat1701:00+4ne58800 0.0 1030230
04:00+4nne57800 0.0 1030226
07:00+4nne57780 0.0 1030224
10:00+7ne67604 0.0 1030622
13:00+9ne34595 0.0 1028404
16:00+9se226320 0.0 1027207
19:00+8sse3369100 0.0 1027161
22:00+7ne1269100 0.0 1027242
18 april, sun
sun1801:00+6ne336881 0.0 1027118
04:00+5ne337273 0.0 1026116
07:00+5ne2375100 0.0 1025123
10:00+7ne2266100 0.0 1026263
13:00+7ssw3165100 0.0 1025283
16:00+7sw436899 0.0 1024245
19:00+8wsw226795 0.0 1023182
22:00+8sse0169100 0.0 1024113
19 april, mon
mon1901:00+7ne117088 0.0 102386
04:00+6ene227564 0.0 102298
07:00+5ne227495 0.0 1021109
10:00+7e22625 0.0 1021233
13:00+8sse33686 0.0 1020254
16:00+8s227365 0.0 1019177
19:00+8s117136 0.0 101860
22:00+8ene227127 0.0 101850
20 april, tue
tue2001:00+7ne227387 0.0 101855
04:00+7nne227696 0.0 101777
07:00+7nne227485 0.0 101685
10:00+8nne116893 0.0 1016124
13:00+8wsw437284 0.0 1015248
16:00+9w6675100 0.0 1014265
19:00+9wnw5579100 0.0 1014182
22:00+8wnw3388100 1.0 1014247